TimeCST,TemperatureF,Dew PointF,Humidity,Sea Level PressureIn,VisibilityMPH,Wind Direction,Wind SpeedMPH,Gust SpeedMPH,PrecipitationIn,Events,Conditions,WindDirDegrees,DateUTC
12:53 AM,37.0,27.0,67,30.45,10.0,NE,8.1,-,N/A,,Clear,50,2012-12-30 06:53:00
1:53 AM,35.1,26.1,70,30.47,10.0,NE,6.9,-,N/A,,Clear,40,2012-12-30 07:53:00
2:53 AM,34.0,26.1,73,30.48,10.0,NE,5.8,-,N/A,,Clear,40,2012-12-30 08:53:00
3:53 AM,34.0,25.0,70,30.48,10.0,NE,8.1,-,N/A,,Clear,50,2012-12-30 09:53:00
4:53 AM,33.1,25.0,72,30.48,10.0,NE,5.8,-,N/A,,Clear,40,2012-12-30 10:53:00
5:53 AM,32.0,25.0,75,30.50,10.0,NE,4.6,-,N/A,,Clear,50,2012-12-30 11:53:00
6:53 AM,32.0,25.0,75,30.51,10.0,NE,5.8,-,N/A,,Clear,50,2012-12-30 12:53:00
7:53 AM,33.1,27.0,78,30.51,10.0,NE,8.1,-,N/A,,Clear,50,2012-12-30 13:53:00
8:53 AM,37.9,27.0,65,30.54,10.0,ENE,13.8,-,N/A,,Clear,70,2012-12-30 14:53:00
9:53 AM,41.0,25.0,53,30.53,10.0,ENE,15.0,-,N/A,,Clear,70,2012-12-30 15:53:00
10:53 AM,45.0,27.0,49,30.52,10.0,East,11.5,-,N/A,,Clear,80,2012-12-30 16:53:00
11:53 AM,46.9,26.1,44,30.48,10.0,East,12.7,-,N/A,,Clear,80,2012-12-30 17:53:00
12:53 PM,46.0,27.0,47,30.45,10.0,ENE,8.1,-,N/A,,Clear,70,2012-12-30 18:53:00
1:53 PM,48.0,28.0,46,30.45,10.0,SE,3.5,-,N/A,,Clear,130,2012-12-30 19:53:00
2:53 PM,50.0,27.0,41,30.43,10.0,SE,8.1,-,N/A,,Clear,130,2012-12-30 20:53:00
3:53 PM,50.0,28.0,43,30.42,10.0,SE,9.2,-,N/A,,Clear,140,2012-12-30 21:53:00
4:53 PM,46.9,30.0,52,30.43,10.0,SSE,3.5,-,N/A,,Clear,160,2012-12-30 22:53:00
5:53 PM,43.0,30.9,62,30.40,10.0,East,3.5,-,N/A,,Clear,90,2012-12-30 23:53:00
6:53 PM,41.0,34.0,76,30.40,10.0,East,3.5,-,N/A,,Clear,90,2012-12-31 00:53:00
7:53 PM,43.0,33.1,68,30.37,10.0,East,4.6,-,N/A,,Clear,100,2012-12-31 01:53:00
8:53 PM,43.0,34.0,71,30.37,10.0,ENE,4.6,-,N/A,,Clear,70,2012-12-31 02:53:00
9:53 PM,42.1,34.0,73,30.36,10.0,ESE,3.5,-,N/A,,Clear,110,2012-12-31 03:53:00
10:53 PM,43.0,35.1,74,30.34,10.0,East,4.6,-,N/A,,Mostly Cloudy,80,2012-12-31 04:53:00
11:53 PM,43.0,37.0,80,30.35,10.0,Calm,Calm,-,N/A,,Overcast,0,2012-12-31 05:53:00